TimeCDT,TemperatureF,Dew PointF,Humidity,Sea Level PressureIn,VisibilityMPH,Wind Direction,Wind SpeedMPH,Gust SpeedMPH,PrecipitationIn,Events,Conditions,WindDirDegrees,DateUTC
12:52 AM,64.0,57.9,80,29.89,10.0,SE,8.1,-,N/A,,Clear,130,2013-07-21 05:52:00
1:52 AM,62.1,57.9,86,29.88,10.0,South,3.5,-,N/A,,Clear,190,2013-07-21 06:52:00
2:52 AM,63.0,55.9,78,29.85,10.0,SSE,6.9,-,N/A,,Clear,150,2013-07-21 07:52:00
3:52 AM,62.1,55.0,78,29.83,10.0,South,5.8,-,N/A,,Clear,170,2013-07-21 08:52:00
4:52 AM,60.1,55.0,83,29.83,10.0,South,3.5,-,N/A,,Clear,170,2013-07-21 09:52:00
5:52 AM,59.0,55.0,87,29.81,10.0,Calm,Calm,-,N/A,,Clear,0,2013-07-21 10:52:00
6:52 AM,61.0,55.9,83,29.79,10.0,SSE,4.6,-,N/A,,Clear,160,2013-07-21 11:52:00
7:52 AM,63.0,57.0,81,29.78,10.0,SSE,8.1,-,N/A,,Clear,160,2013-07-21 12:52:00
8:52 AM,64.9,59.0,81,29.76,10.0,SSE,9.2,-,N/A,,Clear,150,2013-07-21 13:52:00
9:52 AM,69.1,60.1,73,29.74,10.0,SE,10.4,-,N/A,,Clear,140,2013-07-21 14:52:00
10:52 AM,73.0,62.1,68,29.71,10.0,SSE,11.5,-,N/A,,Clear,150,2013-07-21 15:52:00
11:52 AM,78.1,64.0,62,29.68,10.0,South,11.5,-,N/A,,Clear,170,2013-07-21 16:52:00
12:52 PM,81.0,66.0,60,29.64,10.0,SSE,11.5,20.7,N/A,,Clear,160,2013-07-21 17:52:00
1:52 PM,84.9,64.9,51,29.63,10.0,South,9.2,-,N/A,,Clear,190,2013-07-21 18:52:00
2:52 PM,80.1,68.0,67,29.62,6.0,WNW,5.8,-,0.01,Rain-Thunderstorm,Light Rain,290,2013-07-21 19:52:00
3:19 PM,87.8,66.2,49,29.64,10.0,WNW,15.0,24.2,0.01,,Scattered Clouds,300,2013-07-21 20:19:00
3:32 PM,87.8,62.6,43,29.64,10.0,NW,19.6,27.6,0.01,,Clear,310,2013-07-21 20:32:00
3:52 PM,86.0,64.0,48,29.60,10.0,NW,26.5,32.2,0.01,,Clear,310,2013-07-21 20:52:00
4:52 PM,82.9,63.0,51,29.66,10.0,NNW,20.7,29.9,N/A,,Clear,340,2013-07-21 21:52:00
5:52 PM,80.1,60.1,50,29.70,10.0,NNW,19.6,31.1,N/A,,Clear,340,2013-07-21 22:52:00
6:52 PM,78.1,57.0,48,29.72,10.0,NNW,18.4,26.5,N/A,,Clear,340,2013-07-21 23:52:00
7:52 PM,75.9,55.9,50,29.74,10.0,NW,13.8,-,N/A,,Clear,320,2013-07-22 00:52:00
8:52 PM,75.0,57.9,55,29.76,10.0,NW,11.5,-,N/A,,Mostly Cloudy,320,2013-07-22 01:52:00
9:52 PM,70.0,57.0,63,29.78,10.0,NNW,12.7,-,N/A,,Partly Cloudy,330,2013-07-22 02:52:00
10:52 PM,64.9,57.9,78,29.81,10.0,WNW,6.9,-,N/A,,Clear,300,2013-07-22 03:52:00
11:52 PM,64.9,55.9,73,29.82,10.0,NNW,10.4,-,N/A,,Clear,340,2013-07-22 04:52:00